Location: Newark
(45.9456°N, 15.4064°E)
Time: 10:29:18
(UTC+00:00)

Vanguard 3 - Pass Details

Date: 31 January 2020
Orbit: 508 x 3263 km, 33.3° (Epoch: 19 February)

Event Time Altitude Azimuth Distance (km) Brightness Sun altitude
Rises 12:50:18 0° 204° (SSW) 5,836 13.0 22.8°
Reaches altitude 10° 12:54:31 10° 194° (SSW) 5,195 13.1 22.5°
Maximum altitude 13:07:33 30° 141° (SE) 4,522 11.4 21.4°
Drops below altitude 10° 13:22:52 10° 91° (E) 6,180 11.4 20.0°
Sets 13:28:26 0° 82° (E) 7,081 11.6 19.5°
